Location: Gorze? G�rny
(49.8500°N, 19.5000°E)
Time: 10:50:32
(UTC+00:00)

Cosmos 1975 - Pass Details

Date: 13 May 2021
Orbit: 541 x 560 km, 82.5° (Epoch: 22 June)

Event Time Altitude Azimuth Distance (km) Brightness Sun altitude
Rises 21:09:34 0° 353° (N) 2,717 7.8 -18.8°
Reaches altitude 10° 21:11:46 10° 358° (N) 1,818 6.5 -18.9°
Maximum altitude 21:15:42 55° 77° (ENE) 655 3.1 -19.1°
Enters shadow 21:16:30 46° 122° (ESE) 742 3.1 -19.2°
